GW1395 Weather Reports


time (UTC)temp
C
wind
direction
speed
KPH
gust
KPH
rain 1hr
cm
rain 24hr
cm
rain mn
cm
humidity
%
barometer
mb
20260506150024 8 178 6.4 17.7 0.00 0.10 0.00 58 1017.5
20260506144523 7 249 8.0 16.1 0.00 0.10 0.00 60 1017.2
20260506143015 7 307 9.7 19.3 0.00 0.10 0.00 61 1017.3
20260506141516 6 272 3.2 19.3 0.00 0.10 0.00 63 1017.6
20260506140038 6 352 8.0 16.1 0.00 0.10 0.00 64 1017.4
20260506134508 6 277 6.4 16.1 0.00 0.10 0.00 66 1017.3
20260506133011 5 254 6.4 17.7 0.00 0.10 0.00 70 1017.5
20260506131519 5 288 4.8 11.3 0.00 0.10 0.00 69 1017.3
20260506130021 5 251 8.0 14.5 0.00 0.10 0.00 70 1017.6
20260506124522 3 337 0.0 3.2 0.00 0.10 0.00 80 1017.6
20260506123010 2 190 0.0 9.7 0.00 0.10 0.00 84 1016.6
20260506121514 1 181 4.8 9.7 0.00 0.10 0.00 84 1016.3
20260506120024 1 163 4.8 11.3 0.00 0.10 0.00 82 1016.4
20260506114522 2 145 1.6 11.3 0.00 0.10 0.00 81 1016.5
20260506113033 2 155 0.0 9.7 0.00 0.10 0.00 80 1016.6
20260506111509 2 256 0.0 4.8 0.00 0.10 0.00 81 1016.7
20260506110015 2 169 1.6 9.7 0.00 0.10 0.00 80 1016.6
20260506104524 2 188 1.6 6.4 0.00 0.10 0.00 81 1016.5
20260506103025 2 208 0.0 4.8 0.00 0.10 0.00 81 1016.3
20260506101529 3 217 0.0 6.4 0.00 0.10 0.00 1016.4
20260506100018 3 192 0.0 4.8 0.00 0.10 0.00 80 1016.3
20260506094518 3 34 3.2 8.0 0.00 0.10 0.00 80 1016.3
20260506093032 3 146 1.6 8.0 0.00 0.10 0.00 80 1016.2
20260506091526 4 142 1.6 4.8 0.00 0.10 0.00 77 1016.2
20260506090037 5 232 0.0 6.4 0.00 0.10 0.00 72 1016.1
20260506084517 5 192 4.8 11.3 0.00 0.10 0.00 68 1016.2
20260506083029 5 266 1.6 3.2 0.00 0.10 0.00 70 1016.2
20260506081525 5 288 0.0 3.2 0.00 0.10 0.00 1016.3
20260506073020 6 315 1.6 6.4 0.00 0.10 0.00 75 1016.6
20260506071504 6 71 0.0 3.2 0.00 0.10 0.00 78 1016.5
20260506061522 5 5 0.0 1.6 0.00 0.10 0.00 84 1016.5
20260506044509 6 337 1.6 9.7 0.03 0.10 0.10 79 1016.4
20260506043014 6 345 1.6 6.4 0.08 0.10 0.10 81 1016.0
20260506041518 6 344 1.6 6.4 0.08 0.10 0.10 84 1016.0
20260506040021 6 344 0.0 9.7 0.05 0.08 0.08 83 1015.7
20260506034523 6 337 4.8 9.7 0.05 0.08 0.08 81 1015.9
20260506033008 7 12 3.2 12.9 0.00 0.03 0.03 76 1015.5
20260506031525 7 328 1.6 12.9 0.00 0.03 0.03 70 1015.3
20260506030026 8 325 4.8 12.9 0.00 0.03 0.03 69 1014.9
20260506024528 8 340 6.4 19.3 0.00 0.03 0.03 65 1014.7
20260506023026 10 21 1.6 3.2 0.00 0.03 0.03 60 1014.2
20260506021512 10 360 0.0 3.2 0.00 0.03 0.03 61 1013.8
20260506020017 10 342 0.0 3.2 0.00 0.03 0.03 60 1013.5
20260506014518 10 360 0.0 4.8 0.00 0.03 0.03 59 1013.4
20260506013026 10 321 1.6 8.0 0.00 0.03 0.03 59 1013.3
20260506011527 11 339 3.2 14.5 0.00 0.03 0.03 55 1013.3
20260506010038 11 327 6.4 16.1 0.00 0.03 0.03 53 1013.4
20260506004521 11 238 1.6 8.0 0.00 0.03 0.03 54 1013.1
20260506003023 12 319 1.6 8.0 0.00 0.03 0.03 53 1013.1
20260506001524 12 200 1.6 12.9 0.00 0.03 0.03 53 1013.0
20260506000026 13 287 3.2 12.9 0.00 0.03 0.03 49 1012.9
20260505234515 13 323 4.8 14.5 0.00 0.03 0.03 47 1013.0
20260505233022 14 340 4.8 16.1 0.00 0.03 0.03 46 1012.9
20260505231523 13 352 8.0 17.7 0.00 0.03 0.03 48 1013.0
20260505230037 13 209 3.2 6.4 0.00 0.03 0.03 54 1013.0
20260505224512 12 270 0.0 9.7 0.00 0.03 0.03 57 1013.1
20260505223018 11 315 3.2 14.5 0.00 0.03 0.03 66 1013.6
20260505221524 11 11 8.0 24.1 0.00 0.03 0.03 61 1013.8
20260505220028 11 360 8.0 19.3 0.00 0.03 0.03 57 1013.8
20260505214526 13 309 8.0 16.1 0.00 0.03 0.03 53 1013.6
20260505213024 14 14 8.0 14.5 0.00 0.03 0.03 51 1013.5
20260505211504 15 258 4.8 19.3 0.00 0.03 0.03 50 1013.6
20260505210007 15 318 6.4 17.7 0.00 0.03 0.03 51 1013.6
20260505204509 13 337 4.8 17.7 0.00 0.03 0.03 55 1013.7
20260505203025 13 333 3.2 16.1 0.00 0.03 0.03 56 1013.9
20260505201519 13 320 11.3 20.9 0.00 0.03 0.03 56 1014.0
20260505200006 13 238 8.0 20.9 0.03 0.03 0.03 57 1014.1
20260505194508 12 246 8.0 19.3 0.03 0.03 0.03 61 1013.9
20260505193012 11 238 4.8 12.9 0.03 0.03 0.03 68 1014.3
20260505191519 10 215 3.2 14.5 0.03 0.03 0.03 82 1014.5
20260505190032 11 136 3.2 17.7 0.00 0.00 0.00 70 1014.6
20260505184508 13 242 6.4 14.5 0.00 0.00 0.00 53 1014.6
20260505183009 14 302 6.4 17.7 0.00 0.00 0.00 49 1014.2
20260505181515 14 223 6.4 17.7 0.00 0.00 0.00 50 1014.4
20260505180022 13 207 4.8 16.1 0.00 0.00 0.00 52 1014.4
20260505174524 13 278 4.8 14.5 0.00 0.00 0.00 49 1014.5
20260505173009 12 221 3.2 8.0 0.00 0.00 0.00 53 1014.7
20260505171519 12 343 4.8 6.4 0.00 0.00 0.00 52 1015.1
20260505170020 11 50 0.0 8.0 0.00 0.00 0.00 53 1015.0
20260505164521 11 344 1.6 6.4 0.00 0.00 0.00 55 1015.0
20260505163010 10 332 1.6 6.4 0.00 0.00 0.00 58 1015.1
20260505161510 10 47 0.0 8.0 0.00 0.00 0.00 57 1015.4
20260505153026 10 344 3.2 9.7 0.00 0.00 0.00 56 1015.5
20260505151509 10 338 1.6 9.7 0.00 0.00 0.00 57 1015.5